Time,TemperatureF,DewpointF,PressureIn,WindDirection,WindDirectionDegrees,WindSpeedMPH,WindSpeedGustMPH,Humidity,HourlyPrecipIn,Conditions,Clouds,dailyrainin,SoftwareType,DateUTC
2013-04-25 00:01:00,49.0,48.0,29.84,North,359,0.0,0.0,97,0.00,,,0.00,,2013-04-25 07:01:00,
2013-04-25 00:11:00,48.0,47.0,29.85,WSW,246,2.0,0.0,98,0.00,,,0.00,,2013-04-25 07:11:00,
2013-04-25 00:21:00,48.0,47.0,29.85,WSW,246,2.0,0.0,98,0.00,,,0.00,,2013-04-25 07:21:00,
2013-04-25 00:31:00,47.0,47.0,29.85,WSW,246,1.0,0.0,99,0.00,,,0.00,,2013-04-25 07:31:00,
2013-04-25 00:41:00,47.0,47.0,29.85,WSW,246,1.0,0.0,99,0.00,,,0.00,,2013-04-25 07:41:00,
2013-04-25 00:52:00,47.0,47.0,29.85,WSW,246,0.0,0.0,100,0.00,,,0.00,,2013-04-25 07:52:00,
2013-04-25 01:01:00,47.0,47.0,29.86,WSW,246,0.0,0.0,100,0.00,,,0.00,,2013-04-25 08:01:00,
2013-04-25 01:11:00,47.0,47.0,29.86,WSW,246,0.0,0.0,100,0.00,,,0.00,,2013-04-25 08:11:00,
2013-04-25 01:21:00,47.0,47.0,29.86,WSW,246,0.0,0.0,100,0.00,,,0.00,,2013-04-25 08:21:00,
2013-04-25 01:31:00,47.0,47.0,29.86,WSW,246,0.0,0.0,100,0.00,,,0.00,,2013-04-25 08:31:00,
2013-04-25 01:41:00,47.0,47.0,29.86,WSW,246,0.0,0.0,100,0.00,,,0.00,,2013-04-25 08:41:00,
2013-04-25 01:52:00,46.0,46.0,29.86,WSW,246,0.0,0.0,100,0.00,,,0.00,,2013-04-25 08:52:00,
2013-04-25 02:01:00,46.0,46.0,29.85,WSW,246,0.0,0.0,100,0.00,,,0.00,,2013-04-25 09:01:00,
2013-04-25 02:11:00,46.0,46.0,29.85,WSW,246,0.0,0.0,100,0.00,,,0.00,,2013-04-25 09:11:00,
2013-04-25 02:21:00,46.0,46.0,29.85,WSW,246,0.0,0.0,100,0.00,,,0.00,,2013-04-25 09:21:00,
2013-04-25 02:32:00,46.0,46.0,29.84,WSW,246,0.0,0.0,100,0.00,,,0.00,,2013-04-25 09:32:00,
2013-04-25 02:42:00,46.0,46.0,29.84,WSW,246,0.0,0.0,100,0.00,,,0.00,,2013-04-25 09:42:00,
2013-04-25 02:52:00,46.0,46.0,29.84,WSW,246,0.0,0.0,100,0.00,,,0.00,,2013-04-25 09:52:00,
2013-04-25 03:02:00,46.0,46.0,29.84,WSW,246,0.0,0.0,100,0.00,,,0.00,,2013-04-25 10:02:00,
2013-04-25 03:11:00,46.0,46.0,29.84,WSW,246,0.0,0.0,100,0.00,,,0.00,,2013-04-25 10:11:00,
2013-04-25 03:22:00,45.0,45.0,29.84,WSW,246,0.0,0.0,100,0.00,,,0.00,,2013-04-25 10:22:00,
2013-04-25 03:32:00,45.0,45.0,29.83,WSW,246,0.0,0.0,100,0.00,,,0.00,,2013-04-25 10:32:00,
2013-04-25 03:41:00,45.0,45.0,29.83,WSW,246,0.0,0.0,100,0.00,,,0.00,,2013-04-25 10:41:00,
2013-04-25 03:52:00,45.0,45.0,29.84,WSW,246,0.0,0.0,100,0.00,,,0.00,,2013-04-25 10:52:00,
2013-04-25 04:02:00,45.0,45.0,29.84,WSW,246,0.0,0.0,100,0.00,,,0.00,,2013-04-25 11:02:00,
2013-04-25 04:11:00,45.0,45.0,29.84,WSW,246,0.0,0.0,100,0.00,,,0.00,,2013-04-25 11:11:00,
2013-04-25 04:22:00,45.0,45.0,29.85,WSW,246,0.0,0.0,100,0.00,,,0.00,,2013-04-25 11:22:00,
2013-04-25 04:32:00,45.0,45.0,29.85,WSW,246,0.0,0.0,100,0.00,,,0.00,,2013-04-25 11:32:00,
2013-04-25 04:42:00,45.0,45.0,29.85,WSW,246,0.0,0.0,100,0.00,,,0.00,,2013-04-25 11:42:00,
2013-04-25 04:51:00,45.0,45.0,29.85,WSW,246,0.0,0.0,100,0.00,,,0.00,,2013-04-25 11:51:00,
2013-04-25 05:01:00,45.0,45.0,29.85,WSW,246,0.0,0.0,100,0.00,,,0.00,,2013-04-25 12:01:00,
2013-04-25 05:12:00,45.0,45.0,29.85,WSW,246,0.0,0.0,100,0.00,,,0.00,,2013-04-25 12:12:00,
2013-04-25 05:21:00,44.0,44.0,29.85,WSW,246,0.0,0.0,100,0.00,,,0.00,,2013-04-25 12:21:00,
2013-04-25 05:31:00,44.0,44.0,29.86,WSW,246,0.0,0.0,100,0.00,,,0.00,,2013-04-25 12:31:00,
2013-04-25 05:41:00,44.0,44.0,29.86,WSW,246,0.0,0.0,100,0.00,,,0.00,,2013-04-25 12:41:00,
2013-04-25 05:51:00,44.0,44.0,29.87,WSW,246,0.0,0.0,100,0.00,,,0.00,,2013-04-25 12:51:00,
2013-04-25 06:01:00,44.0,44.0,29.87,WSW,246,0.0,0.0,100,0.00,,,0.00,,2013-04-25 13:01:00,
2013-04-25 06:11:00,44.0,44.0,29.87,WSW,246,0.0,0.0,100,0.00,,,0.00,,2013-04-25 13:11:00,
2013-04-25 06:21:00,44.0,44.0,29.88,WSW,246,0.0,0.0,100,0.00,,,0.00,,2013-04-25 13:21:00,
2013-04-25 06:31:00,44.0,44.0,29.88,WSW,246,0.0,0.0,100,0.00,,,0.00,,2013-04-25 13:31:00,
2013-04-25 06:42:00,44.0,44.0,29.88,WSW,246,0.0,0.0,100,0.00,,,0.00,,2013-04-25 13:42:00,
2013-04-25 06:52:00,44.0,44.0,29.89,WSW,246,0.0,0.0,100,0.00,,,0.00,,2013-04-25 13:52:00,
2013-04-25 07:01:00,45.0,45.0,29.90,WSW,246,0.0,0.0,100,0.00,,,0.00,,2013-04-25 14:01:00,
2013-04-25 07:11:00,45.0,45.0,29.90,WSW,246,0.0,0.0,100,0.00,,,0.00,,2013-04-25 14:11:00,
2013-04-25 07:21:00,47.0,46.0,29.90,WSW,246,0.0,0.0,95,0.00,,,0.00,,2013-04-25 14:21:00,
2013-04-25 07:32:00,49.0,46.0,29.91,WSW,246,0.0,0.0,90,0.00,,,0.00,,2013-04-25 14:32:00,
2013-04-25 07:41:00,49.0,46.0,29.91,WSW,246,0.0,0.0,90,0.00,,,0.00,,2013-04-25 14:41:00,
2013-04-25 07:51:00,51.0,47.0,29.91,NE,55,0.0,0.0,86,0.00,,,0.00,,2013-04-25 14:51:00,
2013-04-25 08:01:00,51.0,46.0,29.91,North,359,0.0,0.0,84,0.00,,,0.00,,2013-04-25 15:01:00,
2013-04-25 08:11:00,52.0,47.0,29.93,North,359,0.0,0.0,82,0.00,,,0.00,,2013-04-25 15:11:00,
2013-04-25 08:21:00,52.0,47.0,29.93,North,359,0.0,0.0,82,0.00,,,0.00,,2013-04-25 15:21:00,
2013-04-25 08:32:00,52.0,47.0,29.93,SW,219,8.0,0.0,83,0.00,,,0.00,,2013-04-25 15:32:00,
2013-04-25 08:42:00,52.0,47.0,29.93,SW,219,8.0,0.0,83,0.00,,,0.00,,2013-04-25 15:42:00,
2013-04-25 08:53:00,52.0,47.0,29.93,SW,219,0.0,0.0,83,0.00,,,0.00,,2013-04-25 15:53:00,
2013-04-25 09:02:00,53.0,47.0,29.94,SW,219,0.0,0.0,81,0.00,,,0.00,,2013-04-25 16:02:00,
2013-04-25 09:13:00,53.0,47.0,29.94,SW,219,0.0,0.0,81,0.00,,,0.00,,2013-04-25 16:13:00,
2013-04-25 09:24:00,54.0,47.0,29.94,SW,219,0.0,0.0,78,0.00,,,0.00,,2013-04-25 16:24:00,
2013-04-25 09:32:00,56.0,48.0,29.95,SW,219,0.0,0.0,75,0.00,,,0.00,,2013-04-25 16:32:00,
2013-04-25 09:42:00,56.0,48.0,29.95,SW,219,0.0,0.0,75,0.00,,,0.00,,2013-04-25 16:42:00,
2013-04-25 09:52:00,56.0,48.0,29.96,SW,231,0.0,0.0,74,0.00,,,0.00,,2013-04-25 16:52:00,
2013-04-25 10:02:00,57.0,48.0,29.97,North,359,0.0,0.0,72,0.00,,,0.00,,2013-04-25 17:02:00,
2013-04-25 10:11:00,57.0,48.0,29.97,North,359,0.0,0.0,72,0.00,,,0.00,,2013-04-25 17:11:00,
2013-04-25 10:22:00,59.0,48.0,29.97,North,359,0.0,0.0,68,0.00,,,0.00,,2013-04-25 17:22:00,
2013-04-25 10:31:00,59.0,47.0,29.97,NNW,328,0.0,0.0,65,0.00,,,0.00,,2013-04-25 17:31:00,
2013-04-25 10:41:00,59.0,47.0,29.97,NNW,328,0.0,0.0,65,0.00,,,0.00,,2013-04-25 17:41:00,
2013-04-25 10:53:00,60.0,47.0,29.98,NNW,328,0.0,0.0,63,0.00,,,0.00,,2013-04-25 17:53:00,
2013-04-25 11:01:00,61.0,47.0,29.98,SW,232,0.0,0.0,61,0.00,,,0.00,,2013-04-25 18:01:00,
2013-04-25 11:11:00,61.0,47.0,29.98,SW,232,0.0,0.0,61,0.00,,,0.00,,2013-04-25 18:11:00,
2013-04-25 11:21:00,62.0,47.0,29.98,SW,232,0.0,0.0,59,0.00,,,0.00,,2013-04-25 18:21:00,
2013-04-25 11:31:00,62.0,48.0,29.98,SW,232,0.0,0.0,60,0.00,,,0.00,,2013-04-25 18:31:00,
2013-04-25 11:42:00,62.0,48.0,29.98,SW,232,0.0,0.0,60,0.00,,,0.00,,2013-04-25 18:42:00,
2013-04-25 11:52:00,62.0,47.0,29.98,SW,232,0.0,0.0,59,0.00,,,0.00,,2013-04-25 18:52:00,
2013-04-25 12:01:00,63.0,48.0,29.98,SSW,208,16.0,16.0,57,0.00,,,0.00,,2013-04-25 19:01:00,
2013-04-25 12:11:00,63.0,48.0,29.98,SSW,208,16.0,16.0,57,0.00,,,0.00,,2013-04-25 19:11:00,
2013-04-25 12:21:00,64.0,47.0,29.98,SW,236,18.0,18.0,55,0.00,,,0.00,,2013-04-25 19:21:00,
2013-04-25 12:31:00,65.0,47.0,29.97,SW,231,17.0,0.0,53,0.00,,,0.00,,2013-04-25 19:31:00,
2013-04-25 12:41:00,65.0,47.0,29.97,SW,231,17.0,0.0,53,0.00,,,0.00,,2013-04-25 19:41:00,
2013-04-25 12:52:00,67.0,48.0,29.97,SW,231,0.0,0.0,50,0.00,,,0.00,,2013-04-25 19:52:00,
2013-04-25 13:01:00,67.0,48.0,29.97,SW,231,0.0,0.0,50,0.00,,,0.00,,2013-04-25 20:01:00,
2013-04-25 13:11:00,67.0,48.0,29.97,SW,231,0.0,0.0,50,0.00,,,0.00,,2013-04-25 20:11:00,
2013-04-25 13:21:00,68.0,48.0,29.97,SW,231,0.0,0.0,48,0.00,,,0.00,,2013-04-25 20:21:00,
2013-04-25 13:31:00,68.0,48.0,29.97,SW,231,0.0,0.0,48,0.00,,,0.00,,2013-04-25 20:31:00,
2013-04-25 13:42:00,68.0,48.0,29.97,SW,231,0.0,0.0,48,0.00,,,0.00,,2013-04-25 20:42:00,
2013-04-25 13:52:00,68.0,47.0,29.97,SW,231,0.0,0.0,47,0.00,,,0.00,,2013-04-25 20:52:00,
2013-04-25 14:01:00,68.0,47.0,29.97,SW,231,0.0,0.0,47,0.00,,,0.00,,2013-04-25 21:01:00,
2013-04-25 14:11:00,68.0,47.0,29.97,SW,231,0.0,0.0,47,0.00,,,0.00,,2013-04-25 21:11:00,
2013-04-25 14:21:00,68.0,47.0,29.97,SW,231,0.0,0.0,47,0.00,,,0.00,,2013-04-25 21:21:00,
2013-04-25 14:32:00,68.0,47.0,29.97,SW,231,0.0,0.0,47,0.00,,,0.00,,2013-04-25 21:32:00,
2013-04-25 14:42:00,68.0,47.0,29.97,SW,231,0.0,0.0,47,0.00,,,0.00,,2013-04-25 21:42:00,
2013-04-25 14:52:00,68.0,47.0,29.97,SW,236,11.0,20.0,47,0.00,,,0.00,,2013-04-25 21:52:00,
2013-04-25 15:02:00,69.0,48.0,29.97,SW,222,0.0,0.0,47,0.00,,,0.00,,2013-04-25 22:02:00,
2013-04-25 15:12:00,69.0,48.0,29.97,SW,222,0.0,0.0,47,0.00,,,0.00,,2013-04-25 22:12:00,
2013-04-25 15:22:00,69.0,47.0,29.97,SW,222,0.0,0.0,46,0.00,,,0.00,,2013-04-25 22:22:00,
2013-04-25 15:32:00,69.0,47.0,29.97,SW,222,0.0,0.0,46,0.00,,,0.00,,2013-04-25 22:32:00,
2013-04-25 15:42:00,69.0,47.0,29.97,SW,222,0.0,0.0,46,0.00,,,0.00,,2013-04-25 22:42:00,
2013-04-25 15:52:00,69.0,47.0,29.96,SSW,195,0.0,0.0,46,0.00,,,0.00,,2013-04-25 22:52:00,
2013-04-25 16:02:00,68.0,47.0,29.96,SSW,195,0.0,0.0,47,0.00,,,0.00,,2013-04-25 23:02:00,
2013-04-25 16:11:00,68.0,47.0,29.96,SSW,195,0.0,0.0,47,0.00,,,0.00,,2013-04-25 23:11:00,
2013-04-25 16:21:00,68.0,48.0,29.96,WSW,249,20.0,20.0,48,0.00,,,0.00,,2013-04-25 23:21:00,
2013-04-25 16:32:00,67.0,47.0,29.96,WSW,250,0.0,0.0,48,0.00,,,0.00,,2013-04-25 23:32:00,
2013-04-25 16:41:00,67.0,47.0,29.96,WSW,250,0.0,0.0,48,0.00,,,0.00,,2013-04-25 23:41:00,
2013-04-25 16:52:00,67.0,47.0,29.96,WSW,238,20.0,22.0,49,0.00,,,0.00,,2013-04-25 23:52:00,
2013-04-25 17:01:00,66.0,47.0,29.97,North,359,0.0,0.0,50,0.00,,,0.00,,2013-04-26 00:01:00,
2013-04-25 17:11:00,66.0,47.0,29.97,North,359,0.0,0.0,50,0.00,,,0.00,,2013-04-26 00:11:00,
2013-04-25 17:21:00,65.0,47.0,29.97,SW,228,16.0,26.0,53,0.00,,,0.00,,2013-04-26 00:21:00,
2013-04-25 17:31:00,64.0,47.0,29.97,SW,221,18.0,18.0,54,0.00,,,0.00,,2013-04-26 00:31:00,
2013-04-25 17:41:00,64.0,47.0,29.97,SW,221,18.0,18.0,54,0.00,,,0.00,,2013-04-26 00:41:00,
2013-04-25 17:51:00,64.0,48.0,29.97,SW,224,20.0,20.0,56,0.00,,,0.00,,2013-04-26 00:51:00,
2013-04-25 18:01:00,63.0,48.0,29.97,SW,233,0.0,0.0,58,0.00,,,0.00,,2013-04-26 01:01:00,
2013-04-25 18:11:00,63.0,48.0,29.97,SW,233,0.0,0.0,58,0.00,,,0.00,,2013-04-26 01:11:00,
2013-04-25 18:21:00,61.0,47.0,29.97,SW,233,1.0,0.0,61,0.00,,,0.00,,2013-04-26 01:21:00,
2013-04-25 18:31:00,60.0,48.0,29.98,SW,233,0.0,0.0,65,0.00,,,0.00,,2013-04-26 01:31:00,
2013-04-25 18:41:00,60.0,48.0,29.98,SW,233,0.0,0.0,65,0.00,,,0.00,,2013-04-26 01:41:00,
2013-04-25 18:52:00,59.0,48.0,29.97,SW,232,19.0,19.0,68,0.00,,,0.00,,2013-04-26 01:52:00,
2013-04-25 19:01:00,58.0,48.0,29.98,SW,218,18.0,18.0,70,0.00,,,0.00,,2013-04-26 02:01:00,
2013-04-25 19:11:00,58.0,48.0,29.98,SW,218,18.0,18.0,70,0.00,,,0.00,,2013-04-26 02:11:00,
2013-04-25 19:21:00,57.0,49.0,29.98,SW,225,16.0,16.0,74,0.00,,,0.00,,2013-04-26 02:21:00,
2013-04-25 19:31:00,56.0,49.0,29.98,WSW,238,0.0,0.0,76,0.00,,,0.00,,2013-04-26 02:31:00,
2013-04-25 19:41:00,56.0,49.0,29.98,WSW,238,0.0,0.0,76,0.00,,,0.00,,2013-04-26 02:41:00,
2013-04-25 19:51:00,55.0,49.0,29.98,WSW,238,0.0,0.0,79,0.00,,,0.00,,2013-04-26 02:51:00,
2013-04-25 20:01:00,54.0,48.0,29.99,WSW,238,0.0,0.0,81,0.00,,,0.00,,2013-04-26 03:01:00,
2013-04-25 20:11:00,54.0,48.0,29.99,WSW,238,0.0,0.0,81,0.00,,,0.00,,2013-04-26 03:11:00,
2013-04-25 20:21:00,53.0,48.0,29.99,WSW,238,0.0,0.0,82,0.00,,,0.00,,2013-04-26 03:21:00,
2013-04-25 20:32:00,53.0,48.0,29.99,WSW,238,0.0,0.0,83,0.00,,,0.00,,2013-04-26 03:32:00,
2013-04-25 20:43:00,53.0,48.0,29.99,WSW,238,0.0,0.0,83,0.00,,,0.00,,2013-04-26 03:43:00,
2013-04-25 20:53:00,53.0,48.0,30.00,WSW,238,0.0,0.0,84,0.00,,,0.00,,2013-04-26 03:53:00,
2013-04-25 21:02:00,52.0,48.0,30.00,WSW,238,0.0,0.0,85,0.00,,,0.00,,2013-04-26 04:02:00,
2013-04-25 21:12:00,52.0,48.0,30.00,WSW,238,0.0,0.0,85,0.00,,,0.00,,2013-04-26 04:12:00,
2013-04-25 21:22:00,52.0,48.0,30.01,WSW,238,0.0,0.0,86,0.00,,,0.00,,2013-04-26 04:22:00,
2013-04-25 21:32:00,51.0,47.0,30.02,WSW,238,0.0,0.0,87,0.00,,,0.00,,2013-04-26 04:32:00,
2013-04-25 21:42:00,51.0,47.0,30.02,WSW,238,0.0,0.0,87,0.00,,,0.00,,2013-04-26 04:42:00,
2013-04-25 21:53:00,51.0,48.0,30.02,WSW,238,0.0,0.0,88,0.00,,,0.00,,2013-04-26 04:53:00,
2013-04-25 22:02:00,51.0,48.0,30.03,WSW,238,0.0,0.0,89,0.00,,,0.00,,2013-04-26 05:02:00,
2013-04-25 22:12:00,51.0,48.0,30.03,WSW,238,0.0,0.0,89,0.00,,,0.00,,2013-04-26 05:12:00,
2013-04-25 22:22:00,50.0,47.0,30.03,WSW,238,0.0,0.0,89,0.00,,,0.00,,2013-04-26 05:22:00,
2013-04-25 22:32:00,50.0,47.0,30.04,WSW,238,0.0,0.0,90,0.00,,,0.00,,2013-04-26 05:32:00,
2013-04-25 22:41:00,50.0,47.0,30.04,WSW,238,0.0,0.0,90,0.00,,,0.00,,2013-04-26 05:41:00,
2013-04-25 22:52:00,50.0,47.0,30.04,WSW,238,0.0,0.0,90,0.00,,,0.00,,2013-04-26 05:52:00,
2013-04-25 23:01:00,50.0,47.0,30.04,WSW,238,0.0,0.0,91,0.00,,,0.00,,2013-04-26 06:01:00,
2013-04-25 23:11:00,50.0,47.0,30.04,WSW,238,0.0,0.0,91,0.00,,,0.00,,2013-04-26 06:11:00,
2013-04-25 23:21:00,49.0,46.0,30.04,WSW,238,0.0,0.0,91,0.00,,,0.00,,2013-04-26 06:21:00,
2013-04-25 23:32:00,49.0,47.0,30.04,WSW,238,0.0,0.0,92,0.00,,,0.00,,2013-04-26 06:32:00,
2013-04-25 23:41:00,49.0,47.0,30.04,WSW,238,0.0,0.0,92,0.00,,,0.00,,2013-04-26 06:41:00,
2013-04-25 23:52:00,50.0,48.0,30.05,WSW,238,0.0,0.0,92,0.00,,,0.00,,2013-04-26 06:52:00,